Location: Ceske Budejovice
(48.9830°N, 14.4670°E)
Time: 01:54:14
(UTC+01:00)

ISS - Pass Details

Date: 03 October 2020
Orbit: 417 x 420 km, 51.6° (Epoch: 25 October)

Event Time Altitude Azimuth Distance (km) Brightness Sun altitude
Rises 21:08:09 0° 284° (WNW) 2,369 1.4 -25.2°
Reaches altitude 10° 21:10:48 10° 262° (W) 1,501 -0.2 -25.6°
Enters shadow 21:12:12 15° 239° (WSW) 1,230 -1.1 -25.8°
